Weather History for Ravenna, OH

Change the Weather History Date:

Friday, May 24, 2013

  Actual Average (KCAK) Record (KCAK)
Temperature  
Mean Temperature 39 °F 61 °F  
Max Temperature 44 °F 71 °F 88 °F (1912)
Min Temperature 33 °F 51 °F 30 °F (1956)
Degree Days  
Heating Degree Days 26 6  
Month to date heating degree days 194  
Since 1 July heating degree days 6070  
Cooling Degree Days 0 2  
Month to date cooling degree days 21  
Year to date cooling degree days 27  
Moisture  
Dew Point 35 °F    
Average Humidity 79    
Maximum Humidity 100    
Minimum Humidity 62    
Precipitation  
Precipitation 0.00 in 0.14 in 2.33 in (1979)
Month to date precipitation 3.28  
Year to date precipitation 14.73  
Snow  
Snow 0.00 in 0.00 in - ()
Month to date snowfall 0.1  
Since 1 July snowfall 47.5  
Snow Depth -    
Sea Level Pressure  
Sea Level Pressure 30.20 in    
Wind  
Wind Speed 10 mph (NW)    
Max Wind Speed 15 mph    
Max Gust Speed 23 mph    
Visibility 10 miles    
Events Rain    
T = Trace of Precipitation, MM = Missing Value Source: NWS Daily Summary

Daily Weather History Graph

Daily Weather History Graph

Search for Another Location

Airport:

Trip Planner

Search our weather history database for the weather conditions in past years. The results will help you decide how hot, cold, wet, or windy it might be!

Date:

Astronomy

May. 24, 2013 Rise Set
Actual Time 5:58 AM EDT 8:45 PM EDT
Civil Twilight 5:26 AM EDT 9:17 PM EDT
Nautical Twilight 4:46 AM EDT 9:58 PM EDT
Astronomical Twilight 3:59 AM EDT 10:45 PM EDT
Moon 8:25 PM EDT (5/24) 5:30 AM EDT (5/24)
Length of Visible Light 15h 51m
Length of Day
14h 46m
Full, 100% of the Moon is Illuminated
May 24
Full
May 25
Full
May 31
Last Quarter
Jun 8
New
Jun 16
First Quarter

Hourly Weather History & Observations

Time (EDT) Temp. Windchill Dew Point Humidity Pressure Visibility Wind Dir Wind Speed Gust Speed Precip Events Conditions
12:14 AM 42.1 °F 36.1 °F 42.3 °F 100% 30.01 in 7.0 mi NW 10.4 mph 16.1 mph N/A   Overcast
12:33 AM 42.1 °F 35.2 °F 42.3 °F 100% 30.02 in 7.0 mi NW 12.7 mph 21.9 mph N/A Rain Light Rain
12:54 AM 42.1 °F 34.5 °F 42.3 °F 100% 30.03 in 10.0 mi NNW 15.0 mph 23.0 mph N/A   Overcast
1:14 AM 42.3 °F 36.3 °F 42.6 °F 100% 30.03 in 10.0 mi NW 10.4 mph 18.4 mph N/A   Overcast
1:33 AM 42.3 °F 36.8 °F 42.4 °F 100% 30.03 in 10.0 mi NW 9.2 mph - N/A   Overcast
1:53 AM 42.1 °F 35.2 °F 42.3 °F 100% 30.03 in 10.0 mi NNW 12.7 mph 19.6 mph N/A   Overcast
2:14 AM 41.9 °F 36.3 °F 42.1 °F 100% 30.03 in 10.0 mi NNW 9.2 mph 20.7 mph N/A   Overcast
2:33 AM 41.9 °F 35.4 °F 42.1 °F 100% 30.03 in 10.0 mi NNW 11.5 mph 16.1 mph N/A   Overcast
2:54 AM - - - N/A% 30.04 in 10.0 mi NNW 11.5 mph 18.4 mph N/A   Overcast
3:14 AM 41.2 °F 34.5 °F 41.4 °F 100% 30.05 in 10.0 mi NW 11.5 mph 21.9 mph N/A   Overcast
3:33 AM 41.2 °F 35.0 °F 41.4 °F 100% 30.06 in 10.0 mi NNW 10.4 mph 17.3 mph N/A   Overcast
3:54 AM 41.2 °F 34.5 °F 41.4 °F 100% 30.07 in 10.0 mi NNW 11.5 mph 18.4 mph N/A   Overcast
4:14 AM 41.0 °F 33.9 °F 41.2 °F 100% 30.08 in 10.0 mi North 12.7 mph 20.7 mph N/A   Overcast
4:33 AM 41.0 °F 34.3 °F 41.2 °F 100% 30.09 in 10.0 mi NNW 11.5 mph 17.3 mph N/A   Overcast
4:54 AM 41.0 °F 34.3 °F 41.0 °F 100% 30.09 in 10.0 mi NNW 11.5 mph 19.6 mph N/A   Overcast
5:14 AM 41.2 °F 35.5 °F 41.0 °F 99% 30.10 in 10.0 mi NNW 9.2 mph 16.1 mph N/A   Overcast
5:33 AM 41.2 °F 34.5 °F 41.0 °F 99% 30.10 in 10.0 mi NNW 11.5 mph - N/A   Overcast
5:54 AM 41.2 °F 35.0 °F 40.1 °F 96% 30.11 in 10.0 mi NNW 10.4 mph 18.4 mph N/A   Overcast
6:14 AM 41.4 °F 34.0 °F 37.9 °F 88% 30.12 in 10.0 mi NW 13.8 mph - N/A   Overcast
6:33 AM 41.2 °F 36.6 °F 37.0 °F 85% 30.12 in 10.0 mi NNW 6.9 mph 17.3 mph N/A   Overcast
6:54 AM 41.2 °F 35.5 °F 36.7 °F 84% 30.14 in 10.0 mi NW 9.2 mph 17.3 mph N/A   Overcast
7:14 AM 41.2 °F 33.7 °F 36.5 °F 83% 30.14 in 10.0 mi NNW 13.8 mph - N/A   Overcast
7:33 AM 41.0 °F 33.9 °F 35.6 °F 81% 30.15 in 10.0 mi NNW 12.7 mph 21.9 mph N/A   Overcast
7:54 AM 40.8 °F 34.5 °F 34.2 °F 77% 30.16 in 10.0 mi NNW 10.4 mph 20.7 mph N/A   Overcast
8:14 AM 41.0 °F 35.8 °F 33.6 °F 75% 30.18 in 10.0 mi NNW 8.1 mph - N/A   Overcast
8:33 AM 41.0 °F 33.5 °F 32.5 °F 72% 30.19 in 10.0 mi NNW 13.8 mph 17.3 mph N/A   Overcast
8:54 AM 40.6 °F 34.3 °F 32.0 °F 71% 30.19 in 10.0 mi NNW 10.4 mph 23.0 mph N/A   Overcast
9:14 AM 41.0 °F 35.2 °F 32.2 °F 71% 30.20 in 10.0 mi NNW 9.2 mph 17.3 mph N/A   Overcast
9:33 AM 41.0 °F 34.3 °F 32.0 °F 70% 30.21 in 10.0 mi North 11.5 mph 19.6 mph N/A   Overcast
9:54 AM 41.5 °F 35.4 °F 32.5 °F 70% 30.22 in 10.0 mi NNW 10.4 mph - N/A   Overcast
10:14 AM 41.2 °F 34.5 °F 32.2 °F 70% 30.22 in 10.0 mi NNW 11.5 mph 18.4 mph N/A   Overcast
10:33 AM 42.1 °F 36.1 °F 32.5 °F 69% 30.23 in 10.0 mi North 10.4 mph 16.1 mph N/A   Overcast
10:53 AM 42.3 °F 36.3 °F 32.2 °F 67% 30.24 in 10.0 mi NNW 10.4 mph 21.9 mph N/A   Overcast
11:14 AM 42.1 °F 35.7 °F 32.2 °F 68% 30.24 in 10.0 mi NW 11.5 mph 17.3 mph N/A   Overcast
11:33 AM 41.7 °F 36.7 °F 32.2 °F 69% 30.25 in 10.0 mi NNW 8.1 mph 18.4 mph N/A   Overcast
11:54 AM 41.9 °F 35.4 °F 32.0 °F 68% 30.25 in 10.0 mi NNW 11.5 mph 20.7 mph N/A   Overcast
12:14 PM 43.2 °F 37.0 °F 32.2 °F 65% 30.25 in 10.0 mi NNW 11.5 mph 19.6 mph N/A   Overcast
12:33 PM 43.0 °F 36.8 °F 32.7 °F 67% 30.25 in 10.0 mi NW 11.5 mph 17.3 mph N/A   Overcast
12:54 PM 42.4 °F 36.5 °F 33.6 °F 71% 30.26 in 10.0 mi NW 10.4 mph 18.4 mph N/A   Overcast
1:14 PM 42.3 °F 35.5 °F 33.4 °F 71% 30.27 in 10.0 mi NW 12.7 mph 17.3 mph N/A   Overcast
1:33 PM 42.4 °F 37.0 °F 33.1 °F 69% 30.27 in 10.0 mi NW 9.2 mph 16.1 mph N/A   Overcast
1:54 PM 42.3 °F 35.9 °F 32.4 °F 68% 30.27 in 10.0 mi NW 11.5 mph 20.7 mph N/A   Overcast
2:14 PM 42.6 °F 37.8 °F 32.5 °F 68% 30.28 in 10.0 mi WNW 8.1 mph 16.1 mph N/A   Overcast
2:33 PM 43.2 °F 36.2 °F 32.2 °F 65% 30.28 in 10.0 mi WNW 13.8 mph 20.7 mph N/A   Overcast
2:54 PM 43.9 °F 38.8 °F 32.0 °F 63% 30.28 in 10.0 mi NW 9.2 mph 19.6 mph N/A   Overcast
3:14 PM 43.9 °F 36.8 °F 32.2 °F 63% 30.28 in 10.0 mi NW 15.0 mph 20.7 mph N/A   Overcast
3:33 PM 43.9 °F 36.8 °F 32.2 °F 63% 30.28 in 10.0 mi NW 15.0 mph 20.7 mph N/A   Overcast
3:54 PM 44.1 °F 39.0 °F 32.0 °F 63% 30.28 in 10.0 mi NW 9.2 mph 19.6 mph N/A   Overcast
4:14 PM 43.9 °F 37.9 °F 32.4 °F 64% 30.29 in 10.0 mi NW 11.5 mph 18.4 mph N/A   Overcast
4:33 PM 43.3 °F 36.8 °F 32.0 °F 64% 30.29 in 10.0 mi NNW 12.7 mph 20.7 mph N/A   Overcast
4:54 PM 43.2 °F 38.4 °F 32.2 °F 65% 30.29 in 10.0 mi NW 8.1 mph 23.0 mph N/A   Overcast
5:14 PM 43.3 °F 38.6 °F 32.2 °F 65% 30.30 in 10.0 mi NNW 8.1 mph - N/A   Overcast
5:34 PM 43.5 °F 37.9 °F 31.3 °F 62% 30.30 in 10.0 mi NW 10.4 mph 20.7 mph N/A   Overcast
5:54 PM 43.3 °F 39.2 °F 31.8 °F 64% 30.30 in 10.0 mi NW 6.9 mph - N/A   Overcast
6:14 PM 43.0 °F 36.8 °F 31.5 °F 64% 30.30 in 10.0 mi NW 11.5 mph 17.3 mph N/A   Overcast
6:33 PM 42.8 °F 36.6 °F 31.6 °F 65% 30.30 in 10.0 mi NW 11.5 mph 17.3 mph N/A   Overcast
6:54 PM 42.8 °F 37.0 °F 31.5 °F 64% 30.30 in 10.0 mi NW 10.4 mph 17.3 mph N/A   Overcast
7:14 PM 42.6 °F 37.2 °F 32.0 °F 66% 30.30 in 10.0 mi NW 9.2 mph 17.3 mph N/A   Overcast
7:33 PM 42.4 °F 37.5 °F 32.0 °F 67% 30.30 in 10.0 mi NW 8.1 mph - N/A   Overcast
7:54 PM 41.9 °F 35.9 °F 31.5 °F 66% 30.30 in 10.0 mi NW 10.4 mph - N/A   Overcast
8:14 PM 41.5 °F 36.4 °F 31.1 °F 66% 30.29 in 10.0 mi North 8.1 mph - N/A   Overcast
8:34 PM 40.1 °F 36.9 °F 31.1 °F 70% 30.29 in 10.0 mi NW 4.6 mph - N/A   Scattered Clouds
8:53 PM 39.0 °F - 31.3 °F 74% 30.28 in 10.0 mi Calm Calm - N/A   Clear
9:14 PM 38.5 °F - 31.8 °F 77% 30.28 in 10.0 mi Calm Calm - N/A   Clear
9:33 PM 37.0 °F 34.5 °F 32.7 °F 84% 30.29 in 10.0 mi WNW 3.5 mph - N/A   Clear
9:54 PM 36.7 °F - 33.6 °F 89% 30.29 in 10.0 mi Calm Calm - N/A   Clear
10:14 PM 36.9 °F - 32.2 °F 83% 30.29 in 10.0 mi Calm Calm - N/A   Clear
10:33 PM 35.4 °F - 32.2 °F 88% 30.28 in 10.0 mi Calm Calm - N/A   Clear
10:54 PM 35.1 °F - 35.2 °F 100% 30.29 in 10.0 mi Calm Calm - N/A   Clear
11:14 PM 34.9 °F - 35.1 °F 100% 30.29 in 10.0 mi Calm Calm - N/A   Clear
11:33 PM 35.2 °F - 35.4 °F 100% 30.29 in 10.0 mi Calm Calm - N/A   Clear
11:54 PM 33.8 °F - 34.0 °F 100% 30.29 in 10.0 mi Calm Calm - N/A   Clear